Simultaneous Nadir Overpasses (SNOs) Predictions

Prediction of SNOs between LANDSAT-8 and NOAA-19 Satellite Orbit:

Table of predicted SNOs for the next 14.0 days since TLE Epoch: 5/2/2014
Index Date (LANDSAT-8) Time (LANDSAT-8) Lat,Lon (LANDSAT-8) SZA (LANDSAT-8 ) Date (NOAA-19) Time (NOAA-19) Lat,Lon (NOAA-19) SZA (NOAA-19 ) Distance(km) Time Diff (sec)
1 05/04/2014 07:59:18 71.95, 59.16 55.88 05/04/2014 07:58:08 71.93, 59.18 55.86 2.23 70
2 05/04/2014 08:48:48 -71.83,-133.41 124.26 05/04/2014 08:49:06 -71.85,-133.41 124.24 1.78 18
3 05/06/2014 12:43:22 72.49, -10.94 55.80 05/06/2014 12:42:14 72.55, -13.02 55.86 69.64 68
4 05/06/2014 13:33:01 -71.89, 155.62 124.82 05/06/2014 13:33:00 -71.89, 155.57 124.83 1.97 1
5 05/06/2014 14:22:42 71.03, -38.14 54.32 05/06/2014 14:23:48 71.04, -35.65 54.32 89.89 66
6 05/08/2014 18:17:14 -71.93, 84.62 125.39 05/08/2014 18:16:54 -71.93, 84.54 125.39 3.00 20
7 05/08/2014 19:06:42 71.78,-107.99 54.46 05/08/2014 19:07:55 71.72,-107.84 54.40 8.24 73
8 05/10/2014 23:01:27 -71.95, 13.59 125.94 05/10/2014 23:00:47 -71.92, 13.60 125.97 3.19 40
9 05/10/2014 23:50:54 71.85,-178.93 53.95 05/10/2014 23:51:51 71.84,-179.02 53.95 3.20 57
10 05/13/2014 03:45:40 -71.95, -57.47 126.50 05/13/2014 03:44:41 -71.97, -57.44 126.48 2.12 59
11 05/13/2014 04:35:06 71.85, 110.00 53.40 05/13/2014 04:35:44 71.87, 109.98 53.42 1.94 38
12 05/15/2014 08:29:50 -72.04,-128.37 126.94 05/15/2014 08:28:36 -72.12,-128.69 126.86 13.79 74
13 05/15/2014 09:19:18 71.89, 39.00 52.90 05/15/2014 09:19:38 71.90, 38.97 52.92 1.41 20




NCC Satellite Simultaneous Nadir Overpasses (SNOs) Prediction Service
